Location: Alsip
(41.6689°N, 87.7387°W)
Time: 13:33:45
(UTC+00:00)

Elektron 1 - Pass Details

Date: 14 July 2020
Orbit: 405 x 6310 km, 60.8° (Epoch: 04 August)

Event Time Altitude Azimuth Distance (km) Brightness Sun altitude
Rises 02:46:45 0° 212° (SSW) 2,341 7.4 -12.9°
Reaches altitude 10° 02:48:36 10° 209° (SSW) 1,459 6.3 -13.2°
Maximum altitude 02:51:26 67° 126° (SE) 495 3.8 -13.5°
Drops below altitude 10° 02:55:24 10° 43° (NE) 2,039 7.3 -14.1°
Sets 02:58:27 0° 41° (NE) 3,456 8.5 -14.4°
